Location: Barcelona
(41.3830°N, 2.1830°E)
Time: 03:40:32
(UTC+02:00)

ISS - Pass Details

Date: 07 July 2020
Orbit: 417 x 421 km, 51.6° (Epoch: 09 July)

Event Time Altitude Azimuth Distance (km) Brightness Sun altitude
Rises 05:46:10 0° 303° (WNW) 2,362 -0.1 -6.8°
Reaches altitude 10° 05:48:59 10° 329° (NNW) 1,498 -0.9 -6.4°
Maximum altitude 05:50:58 15° 5° (N) 1,247 -0.7 -6.1°
Drops below altitude 10° 05:52:56 10° 41° (NE) 1,498 0.7 -5.8°
Sets 05:55:45 0° 67° (ENE) 2,361 2.1 -5.4°
